Starlink 11420

operational
NORAD ID: 62591 Int'l Des: 2025-008 Owner: SPXS Country: US Constellation: starlink
LEOCIRCULAR

About Starlink 11420

Description loading...

Live Position

Loading 3D Globe...

Upcoming Passes

Altitude History

Altitude vs Time

uPlot chart will show altitude changes over time

Two-Line Element Set

1 62591U 25008E 25352.43618361 .00211062 00000-0 16033-2 0 9994
2 62591 42.9997 256.0705 0000568 350.3653 9.7204 15.70893239 54518
Epoch: Dec 18, 2025 • Age: 12 hours

Current Status

Altitude 366.5 km
Velocity 7.69 km/s
Sub-Earth Point -37.33°S, 134.71°E
Launch Date Jan 13, 2025
Age 0.9 years
Type internet

Technical Details

Classification Payload
Mass 960.00 kg
Dry Mass 910.00 kg
Total Mass 960.00 kg
Length 0.30 m
Diameter 4.10 m
Span 29.00 m
Shape Box + pan
Manufacturer SPXS
Bus Type Starlink V2MD
Phase Status In Orbit
Owner/State SPXS/US

Large Constellations

Loading constellations...